Regional Weather Roundup
Issued by NWS Sioux Falls, SD

Home | Current Version | Previous Version | Graphics & Text | Print | Product List | Glossary Off
Versions: 1 2 3 4 5 6 7 8 9 10 11 12 13 14 15 16 17 18 19 20 21 22 23 24 25 26 27 28 29 30 31 32 33 34 35 36 37 38 39 40 41 42 43 44 45 46 47 48 49 50

000
ASUS43 KFSD 301410
RWRFSD

WEATHER ROUNDUP FOR SE SOUTH DAKOTA/SW MINNESOTA/NW IOWA
NATIONAL WEATHER SERVICE SIOUX FALLS SD
900 AM CDT MON MAY 30 2016

NOTE: "FAIR" INDICATES FEW OR NO CLOUDS BELOW 12,000 FEET WITH NO
SIGNIFICANT WEATHER AND OR OBSTRUCTIONS TO VISIBILITY.


SDZ038>040-050-052>070-301500-
SOUTHEAST SOUTH DAKOTA

CITY           SKY/WX    TMP DP  RH WIND       PRES   REMARKS
BROOKINGS      CLOUDY    64  56  75 S9        29.98R
CHAMBERLAIN    CLOUDY    66  59  78 SE12      29.95R
HURON          MOSUNNY   63  59  87 S8        29.94R
MADISON        FAIR      66  57  72 S13       29.99S
MITCHELL       MOSUNNY   67  59  75 SE18G28   29.96F
SIOUX FALLS    PTSUNNY   70  55  59 SE6       29.99S
WINNER         FAIR      68  58  70 SE15      29.95F
YANKTON        MOSUNNY   66  55  68 SE8       29.99R
$$

MNZ071-072-080-081-089-090-097-098-301500-
SOUTHWEST MINNESOTA

CITY           SKY/WX    TMP DP  RH WIND       PRES   REMARKS
FAIRMONT       CLOUDY    66  54  63 S8        30.04R
JACKSON        MOSUNNY   66  54  63 S10       30.03S
LUVERNE        SUNNY     66  54  63 SE6       30.01S
MARSHALL       CLOUDY    68  56  65 S9        29.98R
MONTEVIDEO     CLOUDY    70  54  56 CALM      29.98F
PIPESTONE      MOSUNNY   66  55  68 S8        30.00S
REDWOOD FALLS  PTSUNNY   68  56  65 SE9       29.97F
TRACY          CLOUDY    69  57  65 S6        30.00R
WINDOM         MOSUNNY   70  55  60 CALM      30.02R
WORTHINGTON    SUNNY     65  57  75 S12       30.02S
$$

IAZ001>003-012>014-020>022-031-032-NEZ013-014-SDZ071-301500-
NORTHWEST IOWA

CITY           SKY/WX    TMP DP  RH WIND       PRES   REMARKS
CHEROKEE       MOSUNNY   71  54  54 E7        30.02S
DENISON        SUNNY     70  59  68 E6        30.01F
ESTHERVILLE    MOSUNNY   67  56  67 SE3       30.03R
LE MARS        MOSUNNY   70  55  60 SE8G16    30.01F
ORANGE CITY    MOSUNNY   68  57  68 SE10      30.01S
SHELDON        CLOUDY    66  57  72 SE10      30.00F
SIOUX CITY     SUNNY     71  56  58 SE14G20   30.01R
SPENCER        MOSUNNY   66  57  72 E7        30.03S
STORM LAKE     SUNNY     72  52  49 E16       30.03S
$$

ABBREVIATIONS USED IN REMARKS
   TC - TEMPERATURE IN CELSIUS
  WCI - WIND CHILL INDEX
   HX - HEAT INDEX
  VSB - VISIBILITY





USA.gov is the U.S. government's official web portal to all federal, state and local government web resources and services.